This demonstration page uses our WeatherBlox Daily Observations layout. Learn more.

Left ArrowRight Arrow

44.8408, -93.29828

Hourly Observations for April 12, 2017

Temp ( °F °C ) Dew Point ( °F °C ) Humidity (%) Winds ( mph kmh ) Pressure ( in mb ) Visibility ( mi km ) Precip ( " mm )
12:53 am 00:53 Clear 43 6.1 31 -0.6 63 63 Calm 30.26 1025 10 16 0.00 0.00
1:53 am 01:53 Clear 43 6.1 31 -0.6 63 63 SSE 9 15 30.25 1025 10 16 0.00 0.00
2:53 am 02:53 Clear 41 5 31 -0.6 67 67 SE 5 7 30.24 1024 10 16 0.00 0.00
3:53 am 03:53 Mostly Cloudy 42 5.6 32 0 68 68 SE 5 7 30.25 1024 10 16 0.00 0.00
4:53 am 04:53 Cloudy with Light Rain 43 6.1 35 1.7 74 74 S 6 9 30.26 1025 10 16 0.01 0.25
5:53 am 05:53 Cloudy 44 6.7 36 2.2 73 73 SE 5 7 30.25 1024 10 16 0.00 0.03
6:53 am 06:53 Cloudy 45 7.2 35 1.7 68 68 SSE 8 13 30.26 1025 10 16 0.00 0.03
7:53 am 07:53 Cloudy 45 7.2 35 1.7 68 68 SSE 9 15 30.26 1025 10 16 0.00 0.00
8:53 am 08:53 Cloudy 45 7.2 35 1.7 68 68 ESE 10 17 30.26 1025 9 14 0.00 0.00
9:53 am 09:53 Cloudy 46 7.8 37 2.8 71 71 ESE 12 19 30.25 1024 9 14 0.00 0.00
10:53 am 10:53 Cloudy 49 9.4 37 2.8 64 64 ESE 10 17 30.26 1025 10 16 0.00 0.00
11:53 am 11:53 Cloudy 51 10.6 37 2.8 59 59 SE 10 17 30.26 1025 10 16 0.00 0.00
12:53 pm 12:53 Cloudy 53 11.7 38 3.3 57 57 SSE 8 13 30.27 1025 10 16 0.00 0.00
1:53 pm 13:53 Cloudy 56 13.3 39 3.9 53 53 ENE 7 11 30.26 1025 10 16 0.00 0.00
2:53 pm 14:53 Cloudy 56 13.3 40 4.4 55 55 ESE 8 13 30.26 1025 10 16 0.00 0.00
3:53 pm 15:53 Cloudy 56 13.3 40 4.4 55 55 ENE 9 15 30.25 1024 10 16 0.00 0.00
4:53 pm 16:53 Cloudy with Rain 54 12.2 43 6.1 67 67 ESE 13 20 30.27 1025 5 8 0.02 0.51
5:53 pm 17:53 Cloudy with Light Rain 52 11.1 46 7.8 80 80 ENE 12 19 30.25 1024 9 14 0.03 0.76
6:53 pm 18:53 Cloudy 51 10.6 45 7.2 80 80 ESE 9 15 30.27 1025 10 16 0.00 0.03
7:53 pm 19:53 Cloudy with Light Rain 50 10 45 7.2 83 83 ENE 9 15 30.28 1025 7 11 0.05 1.27
8:53 pm 20:53 Cloudy with Light Rain 49 9.4 45 7.2 86 86 ENE 8 13 30.29 1026 5 8 0.01 0.25
9:53 pm 21:53 Cloudy with Light Rain 49 9.4 45 7.2 86 86 VRB 6 9 30.31 1026 7 11 0.02 0.51
10:53 pm 22:53 Cloudy 48 8.9 45 7.2 89 89 ENE 7 11 30.31 1027 7 11 0.01 0.25
11:53 pm 23:53 Cloudy with Mist and Fog 48 8.9 45 7.2 89 89 E 9 15 30.30 1026 6 10 0.01 0.25

Powered by AerisWeather